www.pogodaiklimat.ru
ПОГОДА в Льюиспорте
Время
и дата
04:35 07.02
04:55 07.02
05:15 07.02
05:35 07.02
05:55 07.02
06:15 07.02
06:35 07.02
06:55 07.02
07:15 07.02
07:35 07.02
07:55 07.02
08:15 07.02
08:35 07.02
08:55 07.02
09:15 07.02
09:35 07.02
09:55 07.02
10:15 07.02
10:35 07.02
10:55 07.02
11:15 07.02
11:35 07.02
11:55 07.02
12:15 07.02
12:35 07.02
12:55 07.02
13:15 07.02
13:35 07.02
13:55 07.02
14:15 07.02
14:35 07.02
14:55 07.02
15:15 07.02
15:35 07.02
15:55 07.02
16:15 07.02
16:35 07.02
16:55 07.02
17:15 07.02
17:35 07.02
17:55 07.02
18:15 07.02
18:35 07.02
18:55 07.02
19:15 07.02
19:35 07.02
19:55 07.02
20:15 07.02
Ветер
(напр.,м/с)
Видим. Явления Облачность Т
(С)
Тd
(С)
f
(%)
Тe
(С)
Тes
(С)
Комфортность P
(гПа)
Po
(гПа)
Тmin
(С)
Tmax
(С)
R
(мм)
R24
(мм)
S
(см)
Ю 5 16 км 8/8 1800 м +12.0 +2.0 50 +10 +10 1002.3
Ю 5
{8}
16 км 10/10 1650 м +12.0 +3.0 54 +10 +10 1002.6
Ю 5 16 км 10/10 1650 м +12.0 +3.0 54 +10 +10 1002.9
Ю 5 16 км 10/10 1650 м +12.0 +4.0 58 +10 +10 1002.9
Ю 7 16 км 8/8 1650 m
[Ac]
+13.0 +4.0 54 +11 +11 1002.9
Ю 6 16 км 8/5 1650 m
[Ac]
+12.0 +4.0 58 +10 +10 1003.6
Ю 6 16 км 10/8 1500 m
[Ac]
+13.0 +5.0 58 +11 +11 1003.6
Ю 5
{8}
16 км 10/10 1650 м +13.0 +5.0 58 +11 +11 1003.9
Ю 5
{8}
16 км 10/8 1650 m
[Ac]
+13.0 +5.0 58 +11 +11 1003.9
Ю 5
{8}
16 км 10/8 1440 m
[Ac]
+13.0 +6.0 62 +11 +11 1004.6
Ю 6 16 км 10/10 1470 м +14.0 +6.0 59 +12 +12 1004.3
Ю 7 16 км 8/8 1470 м +14.0 +6.0 59 +12 +12 1004.6
Ю 6
{11}
16 км 10/8 1440 m
[Ac]
+14.0 +7.0 63 +12 +12 1004.6
Ю 7
{10}
16 км 10/8 1440 m
[Ac]
+15.0 +7.0 59 +13 +13 1005.0
Ю 6
{9}
16 км 10/10 1410 м +14.0 +7.0 63 +12 +12 1005.0
Ю 7 16 км 10/10 1410 м +14.0 +7.0 63 +12 +12 1005.3
Ю 6 16 км 10/10 1410 м +14.0 +8.0 67 +12 +12 1005.3
Ю 5
{11}
16 км 10/10 1410 м +14.0 +8.0 67 +12 +12 1005.6
Ю 5 16 км 10/10 1440 м +15.0 +8.0 63 +14 +14 1005.6
Ю 5
{9}
16 км 10/10 1410 м +15.0 +8.0 63 +14 +14 1005.3
Ю 6
{10}
16 км 10/10 960 м +16.0 +9.0 63 +15 +15 1005.3
ЮЗ 6
{9}
16 км 10/10 990 м +15.0 +9.0 67 +13 +13 1005.3
ЮЗ 4
{8}
16 км 10/10 990 м +15.0 +9.0 67 +14 +14 1005.3
Ю 5 16 км 10/10 1020 м +16.0 +9.0 63 +15 +15 1005.0
Ю 5 16 км 10/10 1080 м +16.0 +9.0 63 +15 +15 1005.0
Ю 5 16 км 10/10 1110 м +16.0 +10.0 68 +15 +15 1004.6
ЮЗ 5 16 км 10/10 1050 м +16.0 +10.0 68 +15 +15 1004.6
ЮЗ 4 16 км 10/10 1020 м +17.0 +10.0 63 +17 +17 1004.6
ЮЗ 3
{6}
16 км 10/10 1080 м +16.0 +10.0 68 +16 +16 1004.6
З 3 16 км 10/10 1140 м +16.0 +10.0 68 +16 +16 1005.0
ЮЗ 2 16 км 10/10 1140 м +15.0 +10.0 72 +15 +15 1005.0
ЮЗ 3 16 км 10/10 1110 м +15.0 +10.0 72 +14 +14 1005.3
З 4 16 км 10/10 1080 м +15.0 +11.0 77 +14 +14 1005.6
З 5
{7}
5 км дымка 10/10 960 м +14.0 +13.0 94 +12 +12 1006.0
ЮЗ 4 11 км 10/10 810 м +13.0 +12.0 94 +11 +11 1006.3
ЮЗ 3 6 км дымка 10/10 870 м +12.0 +12.0 100 +10 +10 1006.3
ЮЗ 2 8 км дымка 10/10 840 м +12.0 +12.0 100 +11 +11 1006.6
Ю 2 5 км дымка 10/10 750 м +12.0 +12.0 100 +11 +11 1006.6
Ю 2 5 км дымка 8/8 630 м +12.0 +12.0 100 +11 +11 1007.0
штиль 0 10 км дымка 10/10 420 м +12.0 +12.0 100 +11 +11 1007.3
штиль 0 5 км дымка 10/10 570 м +11.0 +11.0 100 +10 +10 1007.3
штиль 0 6 км дымка 10/10 720 м +11.0 +11.0 100 +10 +10 1007.6
штиль 0 6 км дымка 10/10 360 м +11.0 +11.0 100 +10 +10 1007.6
З 2 6 км дымка 8/8 420 м +11.0 +11.0 100 +10 +10 1008.0
штиль 0 6 км дымка 8/8 300 м +11.0 +11.0 100 +10 +10 1008.0
З 2 10 км дымка 10/10 300 м +11.0 +11.0 100 +10 +10 1008.0
штиль 0 16 км 10/10 360 м +11.0 +11.0 100 +10 +10 1008.0
штиль 0 16 км 10/10 690 м +11.0 +11.0 100 +10 +10 1008.3
Местоположение метеостанции Hancock County Airport: широта 37.9530 долгота -86.8592 высота над уровнем моря 124 м.
В архиве по умолчанию представлена погода в Льюиспорте за последние 1-2 суток. Обновление информации о фактической погоде в базе происходит ежечасно! Архивные данные за месяц целиком и за предыдущие месяцы Вы можете получить, выбрав интересующий диапазон дат из раскрывающегося списка и нажав кнопку "Ввод!".
Внимание! Архив погоды МЕТАР в базе сайта по станциям, не включенным в климатический монитор, хранится не более 60 дней. Нет смысла пытаться выбрать более раннюю дату.
*Определитесь, кто Вы:
Внимание! Время в таблицах - местное (без учета летнего времени). Для получения всемирного времени необходимо вычесть поправку, которая равна -6 ч.
Смотрите также архив погоды в соседних городах и на ближайших метеорологических станциях:
Партнеры нашего сайта:      
Пояснения к столбцам:
  • Ветер - указаны скорость ветра в м/с - средняя за 10 мин, порывы в срок и между сроками (в фигурных скобках) и направление, откуда дует ветер: С - северный,
  • СВ - северо-восточный, В - восточный, ЮВ - юго-восточный, Ю - южный, ЮЗ - юго-западный, З - западный, СЗ - северо-западный.
  • Видимость - горизонтальная дальность видимости в метрах или километрах. При видимости от 1 до 10 км при отсутствии осадков обычно наблюдается дымка, при ухудшении видимости до 1 км и менее - туман. В сухую погоду видимость может ухудшаться дымом, пылью или мглою.
  • Явления - указаны атмосферные явления, наблюдавшиеся в срок или в последний час перед сроком; фигурными скобками обозначены явления, наблюдавшиеся между сроками (за 1-3 часа до срока); квадратными скобками обозначены град или гололедные отложения с указанием их диаметра в мм.
  • Облачность - указаны через наклонную черту общая и нижняя облачность в баллах и высота нижней границы облаков в метрах; квадратными скобками обозначены формы облаков: Ci - перистые, Cs - перисто-слоистые, Cc - перисто-кучевые, Ac - высококучевые, As - высокослоистые, Sc - слоисто-кучевые, Ns - слоисто-дождевые, Cu - кучевые, Cb - кучево-дождевые. Подробнее классификацию облаков см. в Атласе облаков (PDF).
  • T - Температура воздуха - температура, измеренная на высоте 2 м над землей.
  • Td - Температура точки росы - температура, при понижении до которой содержащийся в воздухе водяной пар достигнет насыщения.
  • f - Относительная влажность воздуха - влажноcть воздуха, измеренная на высоте 2 м над землей.
  • Te - Эффективная температура - температура, которую ощущает одетый по сезону человек в тени. Характеристика душности погоды. При расчете учитывается влияние влажности воздуха и скорости ветра на теплоощущения человека.
  • Tes - Эффективная температура на солнце - температура, которую ощущает человек, с поправкой на солнечный нагрев. Характеристика знойности погоды. Зависит от высоты солнца над горизонтом, облачности и скорости ветра. Ночью, в пасмурную погоду, а также при ветре 12 м/с и более поправка равна нулю.
  • P - Атмосферное давление - приведенное к уровню моря атмосферное давление.
  • Po - Атмосферное давление - измеренное на уровне метеостанции атмосферное давление.
  • Tmin - Минимальная температура - минимум температуры воздуха на высоте 2 м над землей.
  • Tmax - Максимальная температура - максимум температуры воздуха на высоте 2 м над землей.
  • R - Количество осадков - Количество выпавших осадков за период времени, мм. При наведении курсора мыши на число - период времени, за который выпало указанное количество осадков.
  • R24 - Количество осадков - Количество выпавших осадков за 24 часа, мм.
  • S - Снежный покров - Высота снежного покрова, см. При наведении курсора мыши на число - состояние снежного покрова и степень покрытия местности в баллах.